This is the latest recevied weather packets stored in our database for station/object K7KAZ. If no packets are shown the sender has not sent any weather packets the latest 10 day(s).
| Time | Temp. | Humidity | Pressure | Rain* | Wind** | Luminosity | Snow |
|---|---|---|---|---|---|---|---|
| 1778016020 | 23.89° C | 29% | 1013 hPa | 0 mm | - | 789 W/m² | - |
| 1778015718 | 23.89° C | 30% | 1013.2 hPa | 0 mm | - | 318 W/m² | - |
| 1778015414 | 23.33° C | 31% | 1013.2 hPa | 0 mm | - | 782 W/m² | - |
| 1778015111 | 23.33° C | 30% | 1013.3 hPa | 0 mm | - | 701 W/m² | - |
| 1778014808 | 23.33° C | 32% | 1013.4 hPa | 0 mm | - | 691 W/m² | - |
| 1778014506 | 22.78° C | 32% | 1013 hPa | 0 mm | - | 793 W/m² | - |
| 1778014203 | 23.33° C | 31% | 1013.4 hPa | 0 mm | - | 721 W/m² | - |
| 1778013901 | 23.33° C | 31% | 1013.5 hPa | 0 mm | - | 662 W/m² | - |
| 1778013598 | 23.89° C | 32% | 1013.5 hPa | 0 mm | - | 790 W/m² | - |
| 1778013294 | 22.78° C | 33% | 1013.6 hPa | 0 mm | - | 601 W/m² | - |
| 1778012990 | 22.78° C | 33% | 1013.5 hPa | 0 mm | - | 783 W/m² | - |
| 1778012687 | 22.78° C | 34% | 1013.4 hPa | 0 mm | - | 779 W/m² | - |
| 1778012383 | 22.78° C | 34% | 1013.5 hPa | 0 mm | - | 804 W/m² | - |
| 1778012080 | 22.78° C | 34% | 1013.5 hPa | 0 mm | - | 805 W/m² | - |
| 1778011778 | 22.78° C | 35% | 1013.6 hPa | 0 mm | - | 182 W/m² | - |
| 1778011476 | 22.22° C | 35% | 1013.6 hPa | 0 mm | - | 154 W/m² | - |
| 1778011171 | 22.22° C | 35% | 1013.6 hPa | 0 mm | - | 886 W/m² | - |
| 1778010868 | 23.33° C | 35% | 1013.7 hPa | 0 mm | - | 695 W/m² | - |
| 1778010566 | 23.33° C | 36% | 1013.8 hPa | 0 mm | - | 900 W/m² | - |
| 1778010263 | 22.22° C | 37% | 1013.8 hPa | 0 mm | - | 823 W/m² | - |
| 1778009963 | 22.22° C | 38% | 1013.9 hPa | 0 mm | - | 812 W/m² | - |
| 1778009661 | 22.22° C | 39% | 1014 hPa | 0 mm | - | 297 W/m² | - |
| 1778009358 | 22.22° C | 39% | 1013.7 hPa | 0 mm | - | 194 W/m² | - |
| 1778009057 | 21.67° C | 41% | 1013.9 hPa | 0 mm | - | 700 W/m² | - |
| 1778008754 | 21.67° C | 41% | 1014 hPa | 0 mm | - | 228 W/m² | - |
* Rain latest hour (hover to see other rain measurements)
** Current wind speed in m/s (hover to see current wind gust speed)